Home   Weather   Miami   Past weeks

Flag for USA Past Weather in Miami, Florida, USA — Yesterday and Last 2 Weeks

Now
67 °F

Overcast.


Feels Like: 67 °F
Forecast: 67 / 82 °F
Wind: No wind

Location: Miami International Airport

Current Time: Jan 20, 2017 at 5:20:34 am

Latest Report: Jan 20, 2017 at 4:53 am


Visibility: 8 mi

Pressure: 30.00 "Hg

Humidity: 87%

Dew Point: 63 °F

Location of MiamiLocation

Past Weather in Miami — Graph

°F

Miami Temperature Yesterday

Maximum temperature yesterday: 82 °F (at 2:53 pm)
Minimum temperature yesterday: 66 °F (at 6:53 am)
Average temperature yesterday: 74 °F

High & Low Weather Summary for the Past Weeks

 TemperatureHumidityPressure
High87 °F (Jan 7, 11:53 am)94% (Jan 6, 2:53 am)30.50 "Hg (Jan 6, 2:53 am)
Low51 °F (Jan 8, 6:53 am)37% (Jan 10, 11:53 am)29.89 "Hg (Jan 5, 1:53 pm)
Average72 °F65%30.21 "Hg
* Reported Jan 5 3:53 am — Jan 20 3:53 am, Miami, Weather by CustomWeather, © 2017

Note: Actual official high and low records may vary slightly from our data, if they occured in-between our weather recording intervals... More about our weather records

Advertising

Miami Weather History for the Previous 24 Hours

Scroll right to see more
 ConditionsComfort  
Time TempWeatherWind HumidityBarometerVisibility
3:53 am
Fri, Jan 20
67 °FPassing clouds.No wind85%29.99 "Hg10 mi
2:53 am66 °FPassing clouds.3 mph81%29.98 "Hg10 mi
1:53 am68 °FPassing clouds.No wind78%29.98 "Hg10 mi
12:53 am70 °FPassing clouds.No wind76%29.98 "Hg10 mi
11:53 pm
Thu, Jan 19
72 °FPassing clouds.3 mph73%29.99 "Hg10 mi
10:53 pm72 °FPassing clouds.5 mph73%30.01 "Hg10 mi
9:53 pm73 °FPassing clouds.3 mph71%30.01 "Hg10 mi
8:53 pm73 °FPassing clouds.5 mph74%30.02 "Hg10 mi
7:53 pm74 °FPassing clouds.5 mph71%30.02 "Hg10 mi
6:53 pm75 °FPassing clouds.7 mph69%30.02 "Hg10 mi
5:53 pm76 °FScattered clouds.9 mph64%30.01 "Hg10 mi
4:53 pm79 °FPassing clouds.10 mph56%30.00 "Hg10 mi
3:53 pm80 °FPassing clouds.10 mph54%29.99 "Hg10 mi
2:53 pm82 °FPassing clouds.10 mph51%29.99 "Hg10 mi
1:53 pm80 °FScattered clouds.7 mph49%30.00 "Hg10 mi
12:53 pm80 °FScattered clouds.7 mph49%30.03 "Hg10 mi
11:53 am81 °FPassing clouds.7 mph51%30.07 "Hg10 mi
10:53 am79 °FPassing clouds.6 mph54%30.09 "Hg10 mi
9:53 am77 °FPassing clouds.3 mph64%30.10 "Hg10 mi
8:53 am72 °FPassing clouds.No wind73%30.09 "Hg10 mi
7:53 am68 °FPassing clouds.No wind82%30.08 "Hg10 mi
6:53 am66 °FPartly cloudy.5 mph84%30.07 "Hg10 mi
5:53 am67 °FPassing clouds.3 mph81%30.07 "Hg10 mi
Weather by CustomWeather, © 2017

See weather overviewHow to use our weather pages